Wind_Speed
44 47 46 44 43 42 40 35 27 27 35 42 42 39 36 34 33 35 36 35 34 33 32 31 30 31 31 32 34 35 37 39 43 46 47 47 46 46 47 47 48 49 49 49 48 46 45 43 40 39 37 36 35 35 33 32 32 32 32 32 32 33 33 33 32 31 31 31 30 31 30 29 28 29 30 31 32 32 33 31 29 29 31 32 34
42 47 47 46 45 43 44 42 31 24 27 35 38 36 35 34 33 35 37 37 35 34 33 32 31 31 30 31 32 34 35 37 39 41 43 45 45 46 47 48 49 48 48 46 45 43 42 41 40 38 37 36 36 35 34 33 34 34 34 33 33 34 35 34 32 31 31 30 30 29 29 29 29 31 31 32 33 33 32 30 30 32 34 36 38
44 47 46 44 43 42 44 44 37 28 27 30 35 36 35 36 36 36 37 37 35 35 34 33 32 30 30 30 31 32 33 34 35 37 39 42 44 45 46 46 45 43 42 41 41 41 40 40 40 39 38 37 36 35 34 34 34 34 34 34 34 33 34 34 32 31 31 30 30 29 29 30 31 31 33 34 33 32 31 31 33 35 37 39 42
47 48 45 40 37 36 38 39 36 32 28 28 35 39 39 40 40 38 37 36 34 33 33 33 32 31 29 29 30 31 31 32 34 35 37 39 40 41 40 39 38 37 37 37 37 38 38 39 39 38 37 36 36 36 35 34 34 34 35 35 34 33 33 33 32 31 31 31 30 30 30 31 32 33 34 34 33 33 33 34 35 38 40 43 45
47 47 45 42 39 36 34 33 34 32 27 26 36 43 42 42 42 39 37 35 32 32 33 33 33 31 29 29 30 31 31 32 33 34 35 35 34 34 33 32 31 31 31 32 33 35 36 36 36 35 34 34 35 35 35 35 35 35 36 35 34 32 30 30 30 30 30 30 31 31 32 33 35 36 35 34 34 35 36 37 39 41 44 46 49
48 46 44 45 44 40 35 33 34 33 26 24 32 41 43 42 41 38 35 33 32 32 32 33 33 31 30 30 31 32 32 32 32 31 30 28 27 27 27 27 27 27 28 29 30 32 32 32 32 31 30 30 31 32 32 32 32 33 34 34 32 30 28 27 29 30 30 31 32 33 34 36 36 36 35 35 36 36 37 39 42 44 47 50 53
48 45 42 44 46 43 37 34 34 33 27 25 27 33 39 40 39 37 35 32 32 32 32 33 32 31 31 31 30 30 30 29 28 26 24 22 22 23 24 26 27 28 29 29 30 30 29 29 28 26 25 25 26 26 26 27 27 27 29 29 28 27 27 28 30 32 33 34 35 36 37 37 36 35 37 38 39 38 39 41 44 46 49 52 55
47 45 44 43 43 42 39 36 35 32 29 28 29 31 35 38 39 38 36 34 33 33 32 31 30 30 30 29 28 26 25 24 22 21 21 21 21 23 24 26 28 29 30 30 30 30 29 28 26 25 24 25 25 25 24 25 25 25 26 27 28 29 29 30 32 34 36 38 38 38 39 38 37 37 39 41 40 40 42 44 46 48 51 54 57
46 43 45 43 41 41 41 40 37 34 32 33 34 34 36 40 41 39 37 37 36 34 32 29 27 28 27 25 24 22 21 21 20 20 21 22 23 25 26 27 28 28 28 28 29 29 28 27 25 25 25 26 27 27 27 27 27 27 28 29 31 31 31 31 32 35 38 41 42 42 40 39 39 40 42 42 42 43 45 47 49 51 53 57 60
49 45 46 45 41 41 42 40 38 37 35 36 38 38 40 42 41 38 36 37 37 36 34 30 27 27 26 24 24 23 23 22 21 21 22 23 25 26 27 28 27 26 26 27 28 28 27 26 25 25 26 27 27 28 29 30 30 31 31 32 32 33 33 34 36 38 40 42 43 43 42 41 42 43 43 44 45 46 47 49 52 54 56 60 63
53 50 48 46 42 42 41 37 36 37 36 36 40 43 43 42 41 39 39 39 38 36 35 32 30 28 27 26 26 26 25 24 23 23 24 24 26 27 28 28 28 28 27 26 27 28 27 27 26 25 24 25 27 29 30 31 33 33 33 34 35 36 39 41 43 43 42 42 42 43 43 43 44 44 44 46 47 49 50 52 55 57 60 63 67
55 53 51 48 45 42 40 36 36 38 38 37 40 43 44 44 43 41 40 40 39 38 37 36 34 32 31 30 29 28 28 28 27 27 26 26 28 29 29 30 31 31 30 29 30 30 30 29 28 26 25 26 28 30 30 32 34 36 37 38 39 41 44 46 46 45 44 43 43 44 44 44 44 45 46 48 50 52 53 55 57 60 63 66 69
56 55 55 54 48 43 41 39 38 40 40 39 39 40 42 46 47 44 41 40 41 41 41 41 39 37 35 34 33 32 33 33 32 31 31 30 30 30 31 32 33 34 33 33 33 32 32 31 30 30 29 29 30 31 31 31 33 35 37 39 41 43 44 45 44 43 43 43 44 44 44 45 46 48 49 51 52 54 56 58 60 63 66 68 70
58 57 58 57 52 47 44 43 42 41 42 41 40 41 43 47 49 48 46 43 41 39 40 42 43 41 38 36 36 36 37 38 38 37 36 35 33 33 34 35 36 37 37 36 36 36 36 35 35 34 34 33 33 34 34 34 33 34 36 38 40 42 42 43 43 43 43 43 44 45 47 48 50 51 52 54 55 57 59 61 64 66 68 70 73
60 60 60 59 56 52 50 49 48 46 45 45 44 44 45 49 52 51 49 47 43 39 39 42 44 42 40 38 38 38 39 41 42 41 40 39 37 36 36 37 38 39 40 40 40 40 41 40 40 39 38 38 38 38 38 38 37 37 38 39 40 41 42 43 43 44 44 45 46 47 49 51 52 54 55 57 58 60 63 65 68 70 71 73 76
64 62 61 60 59 57 54 53 53 50 48 47 47 46 46 49 52 53 51 50 48 44 44 45 44 42 41 42 42 41 42 44 45 46 46 44 42 41 40 41 42 42 42 43 43 43 44 44 44 44 43 43 42 42 42 41 42 42 42 43 44 44 44 45 46 46 47 48 49 50 52 54 55 57 59 60 62 64 66 69 71 73 74 76 79
66 65 63 61 61 60 57 55 55 53 51 51 50 49 47 48 51 52 53 52 50 48 48 49 48 44 43 44 46 47 47 48 49 50 52 52 50 48 46 46 46 46 45 45 46 46 47 47 48 48 49 48 46 45 45 45 45 46 46 47 47 48 48 48 48 48 49 51 52 54 55 57 59 61 63 65 66 68 71 73 75 76 78 79 81
68 67 65 64 63 62 60 57 54 54 56 56 54 53 52 51 51 52 54 56 55 52 52 53 53 51 49 49 51 52 52 53 53 53 54 56 56 54 52 51 50 48 48 47 48 49 50 51 52 52 52 51 50 49 48 48 49 49 49 50 50 50 50 51 51 51 52 53 55 57 59 61 63 65 67 69 71 73 75 76 78 80 81 82 83
70 69 68 67 66 65 63 61 59 59 61 61 58 56 56 56 56 56 58 60 59 58 57 57 58 59 59 58 59 59 58 57 56 55 56 58 59 58 57 55 53 51 50 50 50 52 53 54 55 55 55 54 53 52 51 51 52 52 52 52 53 53 54 54 54 54 55 56 58 60 62 64 66 69 71 74 75 77 78 80 82 83 84 85 86
72 71 71 71 70 69 67 65 65 65 65 64 63 60 59 59 60 60 62 64 63 62 61 60 60 62 63 63 63 62 61 61 59 58 59 61 62 62 60 58 56 54 53 53 53 54 55 56 57 58 58 57 56 55 55 54 55 55 55 55 56 56 57 57 57 58 59 60 61 63 66 68 71 73 76 78 80 81 82 84 85 87 88 89 90
75 74 75 74 73 72 71 69 68 68 67 67 66 64 62 61 62 64 67 67 64 62 62 61 62 63 64 64 64 63 63 63 63 62 63 65 65 65 63 61 59 58 57 56 57 57 58 58 59 60 60 59 59 59 58 58 58 58 59 59 60 60 60 60 60 61 62 63 65 67 70 72 75 77 79 81 82 84 85 87 88 90 91 92 93
77 76 77 77 77 76 74 73 71 70 69 68 68 67 66 65 62 61 63 65 65 62 59 59 61 63 64 65 67 67 66 66 66 66 66 67 68 68 67 65 63 62 61 60 60 61 61 61 62 62 61 61 61 61 61 61 62 62 63 63 64 63 63 63 63 65 66 68 70 72 74 76 78 81 82 84 85 87 88 90 92 93 94 95 97
78 79 79 80 81 81 79 77 75 73 71 70 69 68 67 67 65 61 59 61 63 61 58 58 60 62 62 62 63 67 69 71 71 71 70 71 72 72 72 70 69 68 66 65 64 64 64 64 64 64 64 64 63 63 64 64 65 65 65 65 65 65 65 66 67 68 70 72 73 75 77 79 81 83 85 86 88 90 91 93 95 96 97 99 102
78 79 80 81 83 84 84 83 81 78 74 71 69 68 68 69 71 70 68 66 65 63 62 63 65 65 64 62 61 62 65 67 69 71 71 72 74 75 74 73 72 71 69 68 67 67 67 67 67 67 66 66 66 67 67 68 68 67 67 67 67 67 68 69 70 72 73 74 76 78 80 82 84 85 87 89 90 92 94 95 96 98 100 103 105
77 78 80 82 84 86 87 87 86 84 79 74 70 71 73 74 75 76 77 76 74 73 72 72 72 71 71 70 68 67 66 65 67 69 69 69 72 74 73 72 72 71 70 70 70 69 69 69 69 69 69 69 70 71 72 71 71 70 69 69 69 70 71 72 73 74 76 77 79 81 83 85 87 88 90 92 94 95 96 96 98 100 103 106 109
74 77 78 81 83 86 88 89 89 88 84 80 75 73 75 77 78 78 78 79 79 79 79 78 78 77 76 76 76 75 73 71 71 71 70 70 71 73 73 72 72 72 71 71 71 70 70 70 71 71 72 74 75 76 75 74 73 72 72 72 73 73 74 75 76 77 79 80 83 85 87 89 90 92 94 95 96 96 96 98 101 104 107 110 112
70 73 76 79 81 84 88 90 90 90 88 86 82 79 78 79 80 80 80 80 81 81 81 80 79 78 77 78 78 78 78 77 76 75 74 73 73 74 75 75 74 74 73 73 72 72 72 73 74 76 77 79 79 78 77 76 75 75 75 76 77 77 78 78 79 81 83 85 87 89 91 92 94 96 97 97 97 97 99 101 104 108 111 113 116
68 70 72 76 78 81 85 88 90 90 90 89 87 85 83 83 83 84 83 83 84 85 84 83 82 81 80 79 80 80 81 81 79 79 79 79 79 79 79 78 78 77 76 76 75 75 76 77 78 80 82 82 82 80 79 78 78 78 79 80 80 81 81 82 83 85 87 89 91 93 94 96 97 98 98 98 99 101 103 106 108 111 114 117 120
67 68 70 72 75 78 81 84 88 90 90 90 90 90 89 88 88 88 88 87 87 88 88 88 86 85 84 84 84 84 84 84 84 84 83 83 83 83 82 81 81 80 80 80 80 80 81 81 82 83 83 83 83 82 82 82 82 82 83 83 84 84 85 86 88 90 91 93 94 96 98 98 99 99 100 101 103 106 108 110 112 115 118 121 124
67 68 69 70 72 75 77 80 83 86 88 89 89 90 91 92 92 92 93 92 90 90 91 91 91 89 88 87 87 87 87 88 88 87 86 85 85 85 84 84 84 84 85 85 85 85 85 85 85 84 84 84 84 85 85 86 86 87 87 88 88 89 90 91 92 93 95 96 97 98 99 100 100 102 103 105 108 110 112 115 117 120 122 125 128
68 69 70 70 71 72 74 76 79 81 83 86 87 88 89 91 93 94 94 94 92 91 90 91 92 91 90 90 90 90 90 90 89 89 88 87 86 86 86 87 88 88 88 88 88 88 87 87 87 86 86 86 87 88 88 89 90 91 91 92 93 93 94 95 96 97 98 99 99 100 101 102 103 105 107 110 112 115 117 120 122 124 127 129 130
69 70 71 72 72 72 73 74 76 78 80 82 84 86 87 89 91 92 93 93 92 91 90 90 90 90 90 91 92 92 92 92 91 91 90 89 89 88 88 89 89 89 89 89 89 89 89 89 89 89 89 90 90 91 92 92 93 94 95 95 96 97 97 98 99 100 100 101 101 102 104 105 107 109 112 114 117 119 121 124 126 128 130 132 133
68 70 71 72 73 73 73 73 75 78 80 80 81 83 85 87 88 90 91 91 92 92 91 91 90 90 90 90 91 92 93 93 93 92 91 90 90 89 89 90 90 90 90 90 90 91 91 92 92 92 93 93 94 94 95 96 96 97 98 98 99 100 100 101 101 102 102 103 105 106 108 110 112 114 117 119 121 123 125 127 129 131 133 134 135
69 70 71 72 74 74 74 74 75 77 80 81 82 83 84 86 87 89 90 91 91 91 92 92 92 92 91 91 92 92 93 94 94 94 93 92 92 91 92 92 92 92 92 92 93 93 94 94 95 96 96 97 97 98 98 99 99 100 100 101 102 102 102 103 103 104 105 107 108 110 112 114 117 119 121 123 125 127 128 130 132 134 135 135 136
69 70 72 73 75 75 76 76 76 77 79 81 83 84 85 86 88 89 90 91 91 92 92 92 93 93 93 93 93 93 93 93 94 94 94 94 94 94 94 94 95 95 95 95 95 96 96 97 98 98 99 99 100 100 100 101 101 102 102 103 103 104 105 105 106 107 109 110 112 115 117 119 121 123 125 127 128 130 132 134 135 135 136 137 137
69 71 73 74 76 77 78 78 78 78 79 82 84 85 87 88 89 90 91 92 93 94 94 93 93 93 94 94 94 95 94 94 94 94 95 95 95 96 96 96 97 97 97 97 97 98 98 99 100 100 101 101 101 101 102 102 103 103 104 105 105 106 108 109 110 112 114 116 118 120 121 123 125 127 128 130 131 133 135 135 136 137 137 136 134
70 71 73 75 77 79 80 80 80 80 80 82 84 86 88 89 91 92 93 94 95 96 95 95 95 96 96 96 96 96 96 96 96 96 96 96 96 96 96 97 97 97 98 98 98 98 99 100 100 101 101 102 102 103 104 104 105 106 107 108 109 111 112 113 115 117 119 120 122 124 125 127 128 130 131 133 135 136 136 137 137 137 136 132 128
73 73 73 75 77 80 81 82 83 83 83 83 84 86 88 90 92 93 95 96 97 97 97 97 97 98 99 99 99 99 99 99 99 99 99 99 99 99 99 99 99 99 99 100 100 100 100 101 102 103 103 104 106 107 108 109 110 111 111 113 114 115 117 118 119 121 122 124 125 127 128 129 131 133 135 136 137 137 138 138 137 134 131 126 120
74 75 75 75 77 79 81 83 85 86 86 86 86 87 88 90 92 94 96 98 100 100 100 99 99 100 101 101 102 102 101 101 101 102 102 102 102 102 102 102 102 103 103 103 104 104 104 105 106 107 108 109 110 111 112 113 114 115 116 117 118 119 120 122 123 124 125 127 128 129 131 133 135 136 137 138 138 139 138 136 132 128 124 117 110
74 75 76 77 78 79 81 83 85 87 88 89 89 89 89 91 92 94 95 97 100 102 103 103 102 102 103 104 104 104 104 103 104 104 105 105 105 105 106 106 106 107 107 108 108 108 109 110 111 112 113 114 114 115 116 117 118 119 120 120 121 122 123 124 126 127 128 130 131 133 134 135 136 137 138 139 139 137 134 130 125 120 114 107 99
73 75 76 77 79 80 82 83 85 87 89 90 91 91 91 92 93 95 96 97 99 102 105 106 106 106 106 106 106 106 106 106 107 107 107 108 108 108 109 109 110 110 111 111 112 113 113 114 115 116 116 117 118 119 119 120 121 122 123 123 124 125 126 127 129 130 131 133 134 135 136 137 138 139 139 138 135 130 126 122 116 110 103 96 89
70 72 75 76 78 80 82 84 85 87 89 91 92 93 94 94 94 95 97 98 99 101 103 105 107 109 110 110 110 110 110 110 110 110 110 111 111 112 112 112 113 113 114 115 115 116 117 117 118 119 119 120 121 122 122 123 124 124 125 126 128 129 130 131 132 133 134 135 135 136 137 138 138 137 135 131 127 123 118 112 105 98 92 86 81
66 68 70 73 77 80 82 84 86 87 89 91 92 94 95 96 96 97 98 99 101 102 103 104 105 108 109 111 112 113 113 113 113 113 114 114 114 115 115 116 116 117 117 118 118 119 120 120 121 122 123 123 124 125 125 126 127 128 129 130 131 132 133 134 134 135 135 136 137 138 137 136 134 131 128 123 119 113 107 100 94 88 83 78 74
62 64 65 69 73 77 81 83 85 87 89 91 92 94 95 96 97 98 100 101 102 103 104 105 105 107 108 109 111 113 114 115 116 116 117 117 117 118 118 119 119 120 120 121 121 122 123 123 124 125 126 127 127 128 129 130 130 131 132 132 133 133 134 135 136 136 137 137 136 135 133 130 127 124 119 114 108 101 95 89 84 79 75 71 68
59 60 62 65 69 72 76 80 83 86 88 90 92 93 95 96 97 99 100 102 103 104 105 106 106 107 109 109 110 112 113 114 115 116 117 118 119 120 120 121 122 122 123 124 124 125 126 127 127 128 129 129 130 131 131 132 132 133 133 134 134 135 136 136 136 136 135 133 131 128 126 123 119 114 109 102 96 90 85 79 75 72 69 66 63
57 58 59 62 65 68 72 75 78 81 84 87 90 92 94 95 97 98 100 101 103 105 106 107 108 108 109 110 111 112 113 114 115 116 117 118 119 120 121 122 123 124 124 125 126 127 127 128 129 130 131 131 132 132 133 134 134 135 135 135 135 135 135 134 132 131 128 126 124 121 118 114 109 103 97 91 86 81 76 72 69 66 64 62 60
56 56 57 59 62 65 68 70 73 75 78 82 86 89 92 94 95 97 98 100 102 104 106 107 108 109 110 111 112 113 113 114 115 116 116 118 119 120 121 122 123 124 125 126 127 128 129 130 131 132 133 133 134 134 134 134 134 134 134 133 132 130 129 127 126 124 121 119 115 111 107 102 97 92 87 82 77 73 69 66 64 62 60 58 57
55 55 55 56 59 62 65 67 69 71 73 76 79 83 87 90 92 94 96 98 100 102 104 106 107 109 110 111 111 112 113 114 115 116 117 118 119 120 120 121 122 123 125 126 127 127 128 129 130 131 131 132 132 131 131 131 130 129 128 127 125 124 122 121 118 115 112 108 103 99 95 91 87 83 78 74 71 68 64 62 60 58 57 56 54
52 53 53 54 56 59 62 64 66 67 68 71 74 77 81 84 87 90 92 95 97 98 100 102 104 106 108 109 110 111 112 113 114 115 116 117 118 119 120 121 121 122 123 124 124 125 126 126 127 127 127 127 127 126 126 125 124 123 122 121 119 117 115 112 108 104 100 96 92 89 85 82 79 75 71 68 65 63 60 58 57 56 55 53 51
49 50 51 51 53 55 58 61 62 63 64 66 69 72 75 78 80 83 86 89 92 94 96 98 100 102 103 105 107 108 110 111 113 114 115 116 117 118 118 119 120 120 121 121 122 122 123 123 123 123 123 123 122 122 121 120 119 117 115 113 110 107 104 100 97 94 90 87 84 81 78 75 72 69 66 63 61 59 57 56 55 54 53 51 49
45 46 47 48 49 51 54 57 59 59 60 62 64 67 69 72 74 77 80 82 85 88 90 92 94 96 98 99 101 103 105 106 108 109 111 112 113 114 115 116 117 117 118 118 118 119 119 119 119 118 118 117 116 115 113 111 109 107 104 102 99 96 94 91 88 85 82 79 77 74 71 69 66 63 61 59 58 57 55 54 52 51 50 49 47
Wind_Direction
222 227 231 234 236 237 239 242 251 263 272 278 281 284 288 288 285 283 283 288 291 288 283 277 270 266 263 260 257 257 256 255 254 255 258 262 266 270 274 276 278 279 280 280 280 279 278 276 275 275 275 275 275 275 275 272 269 268 266 264 261 259 260 262 265 267 268 269 272 275 277 277 279 282 286 288 291 295 298 296 294 299 307 313 317
224 228 232 234 235 238 241 242 242 242 254 268 274 281 291 294 291 287 284 284 287 286 283 278 271 267 264 261 259 258 257 256 256 257 260 265 269 271 273 275 277 278 278 279 278 277 275 274 273 273 273 272 271 271 270 269 269 269 267 265 263 262 262 264 267 269 270 272 273 274 274 275 279 283 285 287 290 293 294 293 297 306 314 319 323
221 227 232 234 235 238 239 240 240 233 233 250 262 273 288 294 292 289 285 282 282 283 282 278 272 266 264 263 261 261 261 261 261 262 264 267 270 272 273 274 276 276 277 277 277 275 274 272 272 272 271 270 268 267 267 267 268 268 266 265 265 265 265 266 268 269 270 271 271 271 273 277 280 282 284 287 290 290 291 294 303 312 319 323 325
219 224 230 230 229 231 233 236 239 233 229 242 258 270 282 287 288 288 285 281 279 280 280 277 273 269 266 265 265 264 264 264 264 265 267 270 273 274 275 275 276 277 278 277 276 275 273 272 271 270 269 267 266 265 265 265 265 264 264 266 267 267 267 267 268 267 268 269 270 272 275 278 280 282 285 287 287 288 293 300 310 317 321 324 326
218 223 225 222 221 222 225 231 234 229 227 239 258 270 276 279 283 286 284 281 279 279 278 276 274 272 270 268 266 264 263 262 263 266 269 273 275 276 277 278 279 280 282 281 280 277 275 272 270 269 267 264 263 262 263 262 262 263 264 265 266 266 266 267 267 266 268 270 273 274 275 277 280 282 283 283 285 291 299 308 315 319 322 324 326
219 223 224 220 218 219 222 228 230 229 228 231 247 263 270 272 279 285 286 284 281 278 275 274 274 273 270 267 264 263 262 263 265 268 271 273 275 277 279 282 284 285 286 285 283 280 276 272 269 267 264 262 261 261 261 260 261 262 263 264 264 263 263 266 269 270 271 272 274 275 276 277 279 280 281 283 288 296 305 311 316 319 321 322 323
219 220 221 220 219 220 225 230 230 230 230 222 228 250 261 266 275 287 291 288 282 277 274 272 273 271 268 265 264 264 264 265 266 268 269 270 273 278 282 285 287 288 287 285 282 279 275 271 269 265 261 259 260 260 260 259 259 258 260 261 261 261 263 266 271 274 275 274 273 274 275 277 277 278 282 289 295 302 307 311 314 318 319 318 319
218 219 221 222 221 222 228 232 230 231 232 224 222 236 250 261 273 284 291 289 282 277 274 271 269 267 265 265 264 263 262 262 264 266 268 272 275 279 284 287 289 289 286 283 279 275 272 269 265 261 258 257 258 258 257 256 255 253 254 256 259 262 265 268 272 275 277 277 275 275 276 277 277 279 286 294 300 305 308 309 312 315 315 314 314
216 219 221 221 221 226 233 236 234 234 237 234 232 236 245 256 268 277 283 286 282 277 273 270 267 265 264 262 261 259 258 258 261 264 270 275 280 284 287 290 291 289 284 279 274 271 268 265 262 261 262 263 263 262 260 259 257 254 253 255 260 263 267 271 276 279 279 278 278 278 278 278 280 285 291 297 302 305 306 307 309 311 312 310 310
214 216 218 218 222 229 235 238 237 237 239 239 241 244 245 252 262 270 274 278 280 277 273 269 266 265 263 261 259 258 257 257 260 264 271 277 282 286 290 292 291 288 282 276 271 267 265 263 264 266 269 270 269 268 266 264 262 259 257 258 260 264 269 276 281 283 282 280 279 280 281 282 285 291 297 301 303 304 305 306 307 308 309 308 307
214 216 217 218 225 231 233 237 238 237 236 238 243 249 251 253 260 266 268 270 274 276 274 270 266 265 263 261 260 259 257 258 261 266 270 275 279 284 287 288 288 285 281 276 270 268 268 268 270 271 271 271 272 272 271 269 267 265 263 262 264 267 274 279 283 284 283 281 279 281 283 286 290 296 300 302 303 303 304 304 305 306 306 306 306
215 217 216 218 224 228 230 234 237 236 237 240 244 249 253 255 257 261 262 262 265 270 272 271 268 265 263 261 261 260 256 257 262 266 269 272 276 278 280 280 281 281 280 276 272 271 271 271 271 270 269 271 275 277 275 272 270 268 267 267 268 270 275 279 281 283 283 282 281 283 285 290 295 299 301 302 302 303 303 302 302 303 303 303 304
216 217 216 218 221 224 226 228 232 236 240 244 247 248 250 252 254 255 256 257 260 264 267 268 268 266 264 263 262 260 257 258 261 265 270 273 274 273 273 274 275 278 278 277 274 272 271 271 271 270 271 273 277 281 281 279 276 273 271 271 271 273 275 278 279 281 282 283 285 288 291 295 298 299 300 300 300 300 299 299 299 300 300 301 302
216 216 215 218 220 221 222 222 224 230 236 240 243 245 247 251 254 255 256 256 258 259 261 263 265 266 266 264 262 260 259 259 261 264 269 273 274 271 269 270 272 274 276 277 275 273 273 274 273 273 274 277 279 282 284 284 283 282 280 278 278 277 278 279 279 279 281 285 289 293 294 295 296 297 297 296 296 296 296 297 298 298 299 301 301
216 215 215 217 219 220 222 222 220 224 229 234 238 242 246 251 255 257 256 255 256 258 257 258 261 264 265 264 263 263 262 262 263 265 267 270 272 270 269 271 272 274 275 275 275 274 274 276 276 275 277 279 281 283 285 286 287 287 286 285 285 283 281 281 281 283 287 291 294 295 295 295 295 295 295 295 296 296 296 297 297 299 300 302 303
216 216 217 218 219 220 223 226 225 225 227 231 235 238 243 249 254 256 257 255 255 256 256 258 261 263 262 260 261 264 265 265 266 267 267 268 270 270 271 273 274 274 274 273 273 274 275 278 278 278 279 282 285 286 286 287 287 287 288 288 288 288 287 287 288 290 292 293 293 294 294 295 295 296 296 297 297 297 297 297 298 300 301 302 304
217 218 219 220 220 221 223 227 230 231 230 231 233 235 239 246 251 254 255 255 254 253 255 258 261 263 262 261 261 263 266 268 268 268 267 267 269 271 273 275 275 274 273 272 272 273 276 279 280 281 282 284 286 287 286 286 286 286 287 289 290 291 292 292 292 291 291 290 291 292 293 294 295 296 296 296 296 297 298 298 299 300 302 303 304
219 220 220 221 221 222 223 226 230 233 234 234 234 234 236 240 245 249 252 253 253 253 255 257 258 260 262 264 264 265 268 269 269 268 267 267 268 270 273 274 275 274 272 272 273 274 276 278 281 282 283 284 286 286 286 285 286 287 288 290 291 292 293 292 291 290 290 290 291 292 293 294 295 294 295 295 296 297 298 299 300 301 302 303 304
220 221 221 222 222 222 223 226 228 230 232 233 234 233 234 236 239 244 249 253 254 254 256 257 258 259 261 263 265 267 268 269 268 266 264 264 265 268 271 273 274 273 272 272 273 274 276 279 280 282 283 284 285 285 285 285 286 288 289 290 291 292 292 292 291 291 291 292 293 294 294 295 295 295 296 297 298 299 299 300 301 301 303 304 305
222 221 222 222 222 222 223 226 228 231 233 234 234 235 236 237 239 243 248 252 255 256 258 259 261 261 261 262 263 265 267 268 266 263 261 261 263 266 269 272 273 273 272 272 273 274 276 278 280 282 283 284 284 285 285 286 287 288 289 290 290 291 291 291 292 292 293 293 293 293 293 293 294 295 297 298 299 299 300 301 301 302 303 304 306
224 222 222 222 222 222 223 225 228 232 235 236 236 237 239 240 242 245 248 252 254 257 260 261 261 261 261 260 262 263 264 264 263 260 258 259 262 265 268 271 272 273 273 272 273 274 276 277 279 281 282 283 284 285 286 286 287 288 289 290 291 292 292 292 292 292 292 292 291 292 293 294 295 296 297 298 298 299 299 300 301 302 303 304 305
226 224 223 223 222 222 223 224 227 232 237 238 238 238 239 241 243 246 251 253 253 255 257 259 259 260 261 262 263 262 261 260 259 258 258 259 261 265 267 270 271 273 273 273 273 274 275 276 278 279 280 281 283 284 285 285 286 288 289 291 292 293 293 293 292 291 290 290 291 293 294 295 296 297 297 298 298 299 299 300 301 301 303 304 305
228 227 225 224 224 224 225 226 228 231 236 239 238 236 238 240 241 242 246 250 252 252 253 254 255 257 259 262 264 264 262 260 258 258 258 259 262 264 267 269 271 272 273 273 273 274 275 276 277 279 280 280 281 282 282 284 286 288 289 291 291 291 291 291 290 289 290 291 292 293 294 295 295 296 297 297 298 298 299 300 300 301 303 304 306
231 229 228 226 225 226 226 228 230 233 236 238 237 234 235 237 238 238 240 243 246 248 248 249 251 253 255 257 260 263 264 264 264 263 263 263 265 266 268 270 272 273 273 273 273 274 275 276 277 278 279 279 280 280 282 283 285 287 288 289 289 289 289 289 289 289 290 291 292 293 294 294 295 295 296 296 297 298 299 299 300 301 302 304 305
235 233 231 229 227 227 228 229 232 234 236 238 236 234 234 236 238 240 241 243 245 247 248 249 250 251 252 253 254 257 260 264 266 267 268 270 271 272 273 273 273 273 273 274 275 276 277 278 278 278 279 279 280 281 282 284 286 287 288 288 289 289 289 289 289 289 289 290 291 292 292 293 294 294 295 296 297 297 298 299 299 301 302 303 305
236 236 234 232 230 229 229 230 232 234 236 237 237 235 235 237 239 241 243 245 247 249 250 251 252 252 253 253 254 255 257 260 263 266 268 271 273 274 274 274 274 274 274 275 277 278 278 279 279 279 280 280 281 283 285 286 287 288 288 288 288 288 288 289 289 289 289 289 290 291 292 292 293 294 295 296 296 297 298 298 299 300 302 303 305
236 236 236 235 233 232 231 232 233 235 236 237 237 237 237 238 240 242 243 245 247 249 250 251 252 252 253 253 254 255 257 259 261 264 266 268 269 270 271 272 273 274 275 276 277 277 277 278 278 279 280 281 282 284 286 287 287 287 287 287 288 288 289 289 289 289 289 289 290 290 291 292 293 294 295 296 297 297 298 298 299 300 302 303 304
236 236 236 236 235 234 234 234 234 235 236 237 238 238 238 239 240 242 244 245 246 247 249 250 251 251 251 252 253 255 256 258 260 262 263 265 266 267 268 270 271 272 273 274 275 276 276 276 277 278 280 282 283 285 285 285 285 286 286 287 287 288 288 288 288 288 288 289 289 290 291 292 293 294 295 296 296 297 298 299 300 301 301 302 303
236 236 236 236 236 235 235 235 235 236 237 238 239 240 240 240 240 242 244 245 245 245 247 249 250 251 251 252 253 254 256 257 259 260 261 262 264 266 267 269 270 271 272 272 273 274 274 275 276 278 280 282 283 284 284 284 284 285 285 286 286 287 287 287 287 287 288 288 289 291 292 293 294 294 295 295 296 297 298 299 300 301 301 302 304
236 236 236 236 236 236 235 235 235 236 237 238 240 241 241 242 242 242 244 245 246 245 246 247 248 250 251 252 253 254 255 256 257 258 259 261 262 264 266 267 268 269 270 271 272 273 274 275 276 278 279 280 281 282 283 283 284 284 285 285 286 286 286 287 287 288 288 289 291 292 292 293 293 294 295 295 296 297 298 299 300 301 302 303 305
236 237 237 236 236 236 235 235 235 236 237 238 240 241 242 243 243 244 244 245 245 245 245 246 247 249 250 251 252 253 254 255 256 257 259 260 261 263 264 265 267 268 269 271 272 273 274 275 276 277 278 279 279 280 281 282 283 283 284 285 286 286 287 287 288 289 290 290 291 292 292 292 293 294 294 295 296 297 298 299 300 302 303 305 306
236 237 237 238 237 236 236 235 235 236 237 238 239 241 242 243 243 244 244 244 244 244 244 245 246 248 249 250 252 253 253 254 256 257 258 260 261 262 263 265 266 268 269 270 271 272 273 274 275 276 277 277 278 279 280 281 282 283 284 285 285 286 286 287 288 289 290 290 290 291 291 292 293 294 294 295 296 297 298 300 301 303 304 306 307
236 237 238 238 238 238 237 236 236 236 236 237 238 240 241 242 243 243 243 243 243 243 243 244 245 247 248 250 251 252 253 254 255 257 258 259 260 262 263 264 266 267 268 269 270 271 272 274 274 275 276 277 278 279 279 280 281 282 283 284 284 285 286 287 288 288 289 289 290 290 291 292 293 294 295 296 297 298 299 300 302 304 305 306 307
237 237 237 238 239 239 238 238 237 237 237 237 238 239 240 241 241 242 242 242 242 242 242 243 244 246 247 249 251 252 253 254 255 256 257 258 259 260 262 263 265 266 267 269 270 271 272 273 274 275 276 277 278 278 279 280 281 282 283 283 284 285 286 286 287 287 288 289 289 290 291 292 293 294 295 296 297 299 300 301 303 304 305 306 306
238 237 237 237 238 239 239 239 238 238 237 237 238 238 239 239 240 240 241 241 241 241 242 242 244 245 247 248 250 251 253 254 256 257 258 258 259 260 261 263 264 266 267 268 269 270 271 272 273 274 275 276 277 278 279 280 281 281 282 283 284 284 285 286 286 287 288 288 289 290 291 292 293 294 295 296 298 299 300 302 303 304 305 306 306
240 239 238 238 238 237 238 239 239 238 238 238 238 238 238 239 239 239 240 240 240 241 241 242 243 244 246 247 248 250 251 253 255 256 257 259 260 261 262 263 264 265 266 267 268 269 270 271 272 274 275 275 276 277 278 279 279 280 281 282 282 283 284 285 285 286 287 288 289 290 291 292 293 295 296 297 298 299 301 302 303 304 305 305 306
243 240 239 239 239 238 238 238 238 239 239 238 238 238 239 239 239 239 239 240 240 241 241 242 243 244 245 246 247 248 250 251 253 254 256 257 258 260 261 262 263 264 265 266 267 268 269 270 271 272 273 274 275 276 276 277 278 279 280 280 281 282 283 284 285 286 287 288 289 290 292 293 294 295 296 297 299 300 301 302 303 304 304 305 305
246 243 241 240 240 240 239 238 238 238 238 239 239 239 239 239 239 239 239 239 240 241 241 242 243 244 245 246 247 248 249 250 252 253 254 255 257 258 259 260 261 263 264 265 266 267 268 269 270 271 271 272 273 274 275 276 277 278 279 280 280 281 282 284 285 286 287 288 290 291 292 293 294 295 296 298 299 300 301 302 303 304 304 304 304
247 246 244 242 241 241 240 240 239 239 238 239 239 239 239 240 240 240 239 239 240 240 241 242 243 244 245 246 247 248 249 250 251 252 254 255 256 257 258 259 260 261 262 264 265 266 266 267 268 269 270 271 272 273 274 275 276 277 278 279 280 281 283 284 285 286 287 289 290 291 292 293 294 295 297 298 299 300 301 302 303 303 304 303 303
247 246 245 244 243 242 241 241 240 240 239 239 239 239 239 239 240 241 241 240 240 240 241 242 242 244 245 247 248 249 249 250 251 252 254 255 256 257 258 259 260 261 262 263 264 265 266 267 268 269 270 271 272 273 274 275 276 277 278 280 281 282 283 284 285 286 287 288 290 291 292 293 294 295 297 298 299 300 301 302 303 303 302 302 302
247 246 246 245 244 243 243 242 241 241 240 240 239 239 239 240 240 241 241 241 242 242 242 242 243 244 245 246 248 249 249 250 251 252 253 254 255 257 258 259 260 261 262 263 264 265 266 267 268 269 270 271 272 273 274 275 276 277 279 280 281 282 283 284 285 286 287 288 290 291 292 293 294 295 297 298 299 300 301 302 302 301 301 301 300
248 247 246 245 245 245 244 243 243 242 241 241 240 240 240 240 240 241 241 242 242 243 243 243 244 244 245 246 248 249 250 250 251 252 253 254 255 256 257 258 259 260 262 263 264 265 266 267 268 269 270 271 272 273 274 275 276 277 279 280 281 282 283 284 285 286 287 288 290 291 292 293 294 295 297 298 299 300 300 300 300 300 300 300 300
250 248 247 246 245 245 245 244 244 243 243 242 241 241 240 240 240 241 241 242 242 243 244 244 245 245 246 246 247 248 249 250 251 252 253 254 255 256 257 258 259 260 261 262 263 264 265 266 267 268 269 271 272 273 274 275 276 277 279 280 281 282 283 284 285 287 288 289 290 291 292 294 295 296 297 298 299 299 299 299 299 299 299 299 300
252 251 249 247 246 245 245 245 245 245 244 244 243 242 242 241 241 241 241 242 243 243 244 244 245 246 247 248 248 249 249 250 251 252 253 254 255 256 257 258 259 260 261 262 263 264 265 266 268 269 270 271 272 273 274 275 277 278 279 280 281 282 283 284 286 287 288 289 290 292 293 294 296 297 297 298 298 298 298 298 298 298 299 299 299
254 252 250 249 248 247 246 245 245 245 245 245 245 244 244 243 242 242 242 242 243 244 244 245 245 246 247 248 249 250 250 251 252 252 253 254 255 256 257 258 259 260 261 263 264 265 266 267 268 269 270 271 272 273 274 275 277 278 279 280 281 282 283 285 286 287 288 290 291 293 294 295 296 296 296 297 297 297 297 297 298 298 298 299 299
257 255 252 251 250 249 248 247 246 245 245 246 246 246 246 246 245 244 244 244 244 245 245 245 246 246 247 248 249 250 251 252 253 253 254 255 256 257 257 258 259 260 261 262 263 265 266 267 268 269 270 271 272 273 274 275 277 278 279 280 281 283 284 285 286 288 289 291 292 293 294 294 295 295 295 296 296 296 297 297 297 298 298 298 299
259 257 255 253 252 251 250 249 248 247 246 246 246 247 247 247 247 247 246 246 246 246 246 247 247 247 248 248 249 250 251 252 253 254 255 256 256 257 258 259 260 261 262 263 264 265 266 267 268 269 270 271 272 274 275 276 277 278 279 281 282 283 285 286 288 289 290 291 292 292 293 293 294 294 295 295 296 296 296 297 297 297 298 299 300
260 259 257 255 254 253 253 252 250 249 248 247 247 247 247 247 248 248 248 248 248 248 248 248 249 249 249 250 250 251 252 252 253 254 255 256 257 258 259 260 260 261 262 263 264 265 266 267 269 270 271 272 273 274 276 277 278 279 281 282 284 285 286 287 289 289 290 291 291 292 292 293 293 294 294 295 295 296 296 297 297 298 299 300 300
261 260 259 257 255 254 254 254 253 251 250 249 249 248 248 248 248 248 249 249 250 250 250 250 250 251 251 252 252 253 253 254 254 255 256 257 258 258 259 260 261 262 263 264 265 266 267 268 269 271 272 273 274 276 277 278 280 281 282 284 285 286 287 288 288 289 290 290 291 291 292 292 293 293 294 295 295 296 296 297 298 299 299 300 300
262 261 260 259 257 256 255 255 255 254 252 251 251 250 250 249 249 249 249 250 250 251 251 252 252 252 253 253 253 254 254 255 256 257 257 258 259 260 261 262 263 264 265 266 267 268 269 270 271 272 274 275 276 277 278 280 281 282 283 284 285 286 286 287 288 289 290 290 290 291 291 292 292 293 294 294 295 295 296 298 298 299 299 299 299
265 263 262 260 259 257 257 257 257 256 254 253 252 252 252 251 251 250 250 250 250 251 251 252 253 253 254 254 255 255 256 256 257 258 259 259 260 261 262 263 264 265 266 267 268 269 270 271 272 273 274 276 277 278 279 280 281 282 283 284 285 286 287 287 288 289 289 289 290 290 291 291 292 293 293 294 295 296 297 298 298 299 299 298 298
Height
10619 10621 10622 10621 10622 10623 10626 10628 10630 10629 10627 10625 10625 10626 10625 10624 10623 10623 10624 10624 10623 10623 10624 10624 10625 10625 10627 10629 10629 10631 10633 10636 10638 10639 10639 10640 10641 10642 10641 10641 10641 10641 10641 10641 10641 10641 10641 10640 10640 10640 10640 10640 10639 10639 10640 10640 10640 10641 10640 10640 10641 10641 10641 10641 10642 10642 10641 10641 10641 10640 10639 10638 10638 10637 10637 10636 10636 10635 10635 10633 10632 10631 10629 10627 10626
10614 10615 10616 10617 10618 10620 10621 10623 10624 10626 10625 10621 10621 10623 10622 10620 10619 10619 10620 10620 10620 10620 10621 10622 10622 10622 10624 10625 10626 10626 10628 10630 10632 10635 10636 10636 10636 10637 10636 10636 10636 10636 10636 10636 10636 10636 10635 10635 10635 10635 10635 10635 10635 10635 10635 10636 10636 10636 10636 10636 10636 10637 10636 10637 10638 10639 10638 10637 10637 10636 10635 10634 10634 10633 10633 10632 10632 10631 10631 10629 10628 10626 10624 10622 10620
10609 10610 10611 10612 10614 10615 10616 10617 10619 10621 10621 10618 10617 10618 10617 10616 10616 10616 10616 10616 10617 10617 10618 10619 10619 10620 10620 10621 10621 10622 10623 10625 10627 10629 10631 10631 10631 10631 10631 10631 10631 10631 10631 10630 10630 10630 10630 10630 10630 10631 10631 10630 10630 10630 10631 10631 10631 10632 10631 10631 10632 10633 10632 10633 10634 10635 10634 10633 10632 10632 10631 10630 10630 10629 10629 10628 10628 10627 10626 10625 10623 10621 10619 10617 10615
10604 10604 10605 10606 10608 10609 10611 10613 10615 10617 10617 10615 10614 10614 10613 10612 10612 10612 10611 10611 10612 10613 10613 10614 10615 10616 10616 10617 10617 10618 10619 10620 10622 10624 10626 10627 10626 10625 10625 10625 10625 10625 10625 10625 10625 10625 10625 10625 10626 10627 10627 10626 10625 10626 10627 10627 10627 10627 10627 10627 10628 10629 10629 10628 10629 10630 10630 10629 10628 10628 10627 10626 10626 10625 10625 10624 10623 10622 10621 10619 10617 10615 10613 10611 10609
10600 10600 10599 10601 10603 10604 10606 10609 10611 10613 10614 10614 10612 10610 10609 10608 10607 10607 10606 10606 10607 10608 10608 10609 10610 10611 10612 10613 10613 10614 10615 10616 10618 10620 10621 10622 10622 10621 10620 10620 10620 10621 10621 10620 10620 10620 10621 10621 10622 10622 10623 10621 10621 10622 10623 10623 10623 10623 10622 10623 10624 10625 10625 10624 10624 10625 10625 10625 10624 10623 10623 10622 10621 10621 10620 10620 10619 10617 10615 10613 10611 10609 10607 10604 10602
10595 10595 10594 10595 10597 10599 10602 10606 10607 10608 10609 10611 10610 10606 10602 10602 10603 10602 10601 10601 10602 10603 10603 10604 10606 10608 10609 10610 10610 10611 10611 10612 10614 10616 10618 10619 10618 10617 10617 10616 10617 10617 10617 10617 10616 10616 10617 10617 10618 10618 10618 10617 10617 10617 10618 10619 10619 10619 10618 10619 10620 10621 10621 10620 10619 10620 10620 10621 10620 10619 10618 10618 10617 10616 10615 10615 10614 10613 10610 10607 10605 10603 10600 10597 10596
10591 10591 10589 10590 10592 10595 10599 10603 10604 10604 10604 10605 10606 10603 10597 10596 10598 10599 10598 10597 10598 10599 10600 10602 10603 10605 10606 10607 10607 10608 10608 10609 10610 10612 10614 10615 10615 10615 10614 10614 10614 10614 10614 10613 10613 10613 10613 10614 10614 10615 10614 10614 10614 10614 10615 10615 10616 10617 10616 10616 10616 10617 10618 10617 10616 10615 10614 10615 10616 10615 10614 10614 10614 10613 10611 10609 10608 10606 10604 10602 10600 10598 10595 10592 10590
10589 10589 10588 10589 10593 10596 10599 10601 10601 10602 10601 10600 10600 10597 10593 10591 10594 10596 10596 10595 10595 10596 10597 10599 10601 10602 10603 10603 10605 10606 10606 10606 10607 10608 10610 10611 10612 10612 10612 10611 10611 10611 10610 10610 10610 10610 10610 10611 10611 10611 10611 10611 10612 10612 10613 10613 10614 10615 10614 10613 10613 10613 10614 10614 10613 10612 10610 10609 10609 10610 10609 10609 10609 10609 10606 10604 10602 10600 10598 10596 10594 10592 10590 10586 10584
10586 10588 10588 10590 10595 10598 10599 10599 10599 10599 10598 10597 10596 10593 10590 10589 10592 10595 10595 10593 10592 10593 10595 10597 10599 10599 10600 10601 10602 10603 10604 10604 10605 10606 10607 10607 10607 10608 10608 10609 10609 10608 10608 10607 10607 10607 10608 10608 10609 10609 10609 10609 10610 10610 10610 10611 10611 10612 10612 10611 10609 10609 10610 10610 10610 10609 10607 10604 10603 10604 10604 10604 10604 10603 10601 10599 10597 10595 10593 10590 10588 10586 10584 10581 10578
10581 10583 10584 10588 10593 10594 10593 10593 10595 10595 10595 10594 10593 10590 10587 10586 10589 10593 10593 10590 10590 10590 10592 10594 10596 10597 10598 10599 10599 10600 10601 10602 10604 10605 10605 10604 10603 10603 10604 10604 10605 10605 10605 10605 10605 10605 10605 10606 10607 10608 10608 10607 10607 10607 10607 10607 10607 10608 10608 10608 10607 10606 10605 10605 10605 10605 10604 10601 10599 10598 10599 10599 10598 10596 10594 10592 10590 10588 10587 10584 10582 10580 10578 10575 10571
10575 10577 10581 10586 10586 10585 10586 10588 10590 10591 10590 10590 10589 10587 10585 10584 10585 10588 10589 10587 10587 10587 10589 10591 10593 10594 10595 10596 10597 10598 10599 10600 10601 10602 10603 10603 10602 10600 10600 10600 10600 10602 10603 10603 10602 10602 10603 10604 10605 10606 10606 10605 10604 10603 10603 10604 10604 10604 10604 10604 10604 10603 10601 10600 10599 10598 10598 10598 10596 10595 10594 10593 10592 10590 10587 10585 10582 10580 10579 10578 10575 10573 10572 10569 10565
10570 10573 10578 10579 10577 10578 10583 10587 10586 10584 10584 10585 10584 10583 10582 10581 10581 10583 10584 10583 10584 10584 10586 10588 10589 10590 10591 10592 10593 10595 10596 10597 10597 10598 10599 10600 10600 10599 10597 10596 10596 10597 10599 10599 10599 10599 10599 10601 10602 10602 10603 10603 10601 10600 10600 10600 10600 10600 10600 10600 10600 10599 10597 10595 10594 10592 10592 10591 10591 10590 10589 10587 10585 10583 10581 10579 10577 10575 10573 10571 10569 10567 10565 10563 10560
10564 10569 10572 10571 10571 10575 10581 10582 10580 10580 10580 10581 10580 10578 10577 10576 10576 10579 10579 10578 10580 10581 10583 10583 10585 10586 10587 10588 10589 10590 10592 10593 10594 10594 10595 10596 10597 10598 10596 10594 10593 10593 10594 10595 10595 10595 10596 10597 10597 10598 10598 10599 10598 10596 10595 10596 10596 10595 10595 10595 10594 10593 10592 10591 10590 10588 10587 10585 10584 10583 10581 10579 10578 10576 10574 10573 10571 10570 10568 10566 10565 10563 10561 10559 10557
10559 10563 10565 10566 10568 10571 10573 10573 10575 10577 10577 10577 10576 10575 10574 10571 10570 10573 10574 10574 10575 10577 10578 10578 10579 10582 10584 10584 10584 10585 10587 10588 10590 10591 10591 10592 10593 10594 10593 10591 10590 10589 10589 10590 10590 10591 10592 10592 10593 10593 10594 10594 10594 10592 10591 10591 10591 10590 10590 10589 10588 10588 10587 10586 10585 10584 10582 10580 10578 10576 10574 10572 10570 10569 10568 10566 10565 10564 10562 10561 10560 10559 10557 10555 10552
10553 10556 10559 10561 10563 10565 10564 10566 10568 10570 10571 10572 10572 10572 10571 10568 10566 10566 10568 10569 10571 10573 10573 10572 10573 10577 10580 10580 10580 10580 10582 10583 10585 10586 10587 10588 10589 10589 10588 10588 10587 10586 10585 10584 10585 10585 10586 10587 10588 10588 10588 10588 10588 10588 10587 10586 10585 10585 10584 10583 10582 10582 10581 10580 10578 10577 10575 10573 10571 10569 10568 10566 10564 10563 10561 10560 10559 10558 10556 10554 10552 10551 10550 10547 10544
10547 10550 10553 10555 10558 10559 10559 10559 10562 10565 10566 10566 10566 10568 10568 10566 10563 10562 10562 10563 10566 10569 10569 10567 10567 10571 10574 10575 10575 10576 10577 10578 10580 10581 10582 10583 10583 10584 10584 10583 10583 10582 10581 10580 10579 10579 10580 10581 10582 10582 10582 10582 10582 10582 10581 10581 10580 10579 10577 10576 10575 10574 10573 10572 10570 10569 10566 10564 10563 10561 10560 10558 10557 10555 10554 10552 10551 10550 10548 10546 10543 10541 10540 10538 10534
10542 10544 10547 10549 10552 10553 10554 10554 10557 10561 10562 10561 10561 10562 10564 10563 10561 10559 10557 10557 10560 10563 10563 10563 10564 10565 10567 10568 10569 10570 10572 10573 10575 10576 10576 10576 10577 10577 10578 10578 10578 10577 10577 10575 10574 10574 10574 10575 10575 10575 10575 10575 10575 10575 10574 10574 10573 10572 10571 10569 10568 10567 10566 10564 10562 10560 10558 10556 10554 10553 10551 10550 10548 10546 10545 10544 10543 10541 10539 10536 10533 10532 10531 10528 10525
10536 10538 10541 10543 10545 10548 10549 10551 10554 10556 10555 10554 10555 10558 10559 10559 10557 10555 10552 10550 10554 10557 10557 10558 10559 10560 10561 10562 10562 10563 10565 10567 10569 10571 10571 10570 10570 10570 10571 10572 10572 10572 10571 10570 10568 10567 10568 10569 10569 10568 10568 10568 10568 10567 10567 10566 10565 10565 10564 10562 10561 10560 10558 10556 10554 10552 10550 10548 10546 10544 10543 10541 10539 10537 10535 10534 10532 10531 10529 10526 10523 10521 10519 10517 10515
10529 10531 10534 10536 10538 10541 10543 10545 10547 10547 10545 10546 10549 10552 10553 10553 10552 10550 10547 10545 10548 10551 10551 10552 10553 10554 10555 10556 10555 10556 10558 10559 10562 10564 10564 10564 10563 10563 10564 10565 10566 10565 10565 10564 10562 10561 10560 10561 10561 10561 10561 10561 10560 10559 10559 10558 10557 10556 10555 10555 10553 10552 10550 10547 10545 10543 10541 10540 10538 10536 10534 10533 10530 10528 10525 10523 10521 10520 10518 10516 10513 10510 10507 10505 10502
10521 10524 10526 10529 10531 10534 10536 10537 10539 10539 10538 10540 10543 10545 10547 10548 10547 10546 10542 10540 10543 10545 10546 10547 10547 10547 10548 10549 10548 10549 10551 10552 10553 10555 10556 10556 10556 10556 10557 10557 10558 10558 10558 10557 10556 10555 10553 10553 10553 10554 10553 10553 10552 10551 10550 10549 10548 10548 10547 10546 10544 10543 10541 10538 10536 10534 10533 10531 10529 10528 10526 10523 10520 10518 10515 10512 10509 10507 10506 10503 10500 10497 10495 10492 10489
10514 10517 10519 10521 10524 10527 10528 10530 10532 10533 10534 10536 10538 10541 10543 10543 10543 10541 10537 10536 10539 10541 10541 10541 10541 10540 10540 10541 10541 10542 10543 10544 10545 10546 10548 10548 10548 10548 10549 10550 10550 10550 10550 10550 10549 10548 10547 10546 10545 10545 10545 10544 10543 10542 10541 10540 10539 10538 10537 10536 10534 10533 10531 10529 10527 10525 10524 10522 10520 10518 10516 10513 10510 10508 10505 10502 10499 10496 10493 10490 10487 10484 10482 10481 10479
10506 10509 10512 10514 10516 10519 10521 10523 10525 10527 10529 10531 10533 10536 10537 10537 10537 10536 10532 10531 10533 10535 10535 10535 10535 10533 10533 10533 10533 10533 10535 10536 10537 10538 10539 10540 10540 10540 10541 10542 10543 10543 10542 10542 10542 10541 10540 10539 10538 10537 10537 10536 10535 10534 10533 10531 10530 10528 10527 10526 10525 10523 10522 10520 10519 10517 10515 10512 10510 10508 10506 10503 10500 10498 10495 10492 10489 10485 10482 10479 10475 10472 10469 10466 10464
10497 10501 10504 10507 10509 10511 10513 10515 10517 10520 10522 10524 10527 10529 10530 10530 10530 10528 10526 10525 10526 10528 10528 10528 10528 10527 10527 10525 10524 10523 10524 10526 10528 10530 10531 10531 10531 10531 10532 10533 10534 10534 10534 10534 10533 10532 10532 10531 10531 10530 10529 10528 10527 10526 10524 10523 10521 10520 10519 10517 10516 10514 10513 10511 10510 10507 10505 10503 10500 10499 10497 10494 10491 10488 10485 10482 10479 10475 10471 10468 10463 10459 10455 10452 10449
10488 10492 10495 10498 10501 10503 10505 10507 10509 10512 10514 10517 10520 10522 10522 10521 10519 10518 10517 10517 10517 10518 10519 10519 10520 10521 10521 10519 10516 10514 10514 10515 10516 10518 10521 10522 10521 10521 10523 10524 10523 10524 10524 10523 10523 10523 10523 10523 10522 10521 10520 10519 10518 10517 10516 10515 10513 10512 10511 10509 10507 10506 10504 10502 10500 10498 10496 10494 10491 10489 10487 10485 10482 10480 10476 10472 10469 10465 10461 10457 10453 10449 10444 10440 10437
10479 10483 10486 10490 10492 10494 10497 10499 10501 10503 10506 10509 10511 10512 10512 10511 10510 10510 10509 10509 10509 10509 10510 10511 10512 10513 10513 10512 10510 10508 10508 10508 10507 10506 10508 10509 10509 10509 10511 10512 10512 10512 10512 10512 10513 10513 10513 10513 10512 10511 10510 10509 10508 10507 10507 10506 10505 10503 10502 10500 10498 10496 10494 10492 10490 10488 10486 10485 10483 10481 10478 10476 10473 10470 10467 10463 10459 10456 10452 10447 10442 10438 10434 10431 10427
10470 10474 10477 10480 10483 10485 10488 10490 10492 10494 10497 10499 10502 10503 10503 10503 10502 10503 10503 10503 10502 10502 10502 10503 10504 10506 10505 10504 10503 10502 10502 10502 10500 10500 10501 10501 10499 10498 10499 10499 10500 10501 10501 10502 10502 10502 10502 10502 10500 10499 10498 10497 10496 10496 10496 10495 10494 10493 10491 10490 10488 10486 10484 10483 10481 10479 10477 10475 10473 10471 10468 10465 10462 10459 10456 10453 10449 10446 10442 10438 10432 10427 10422 10419 10417
10462 10464 10467 10470 10473 10476 10478 10480 10483 10485 10487 10489 10491 10493 10494 10495 10494 10495 10495 10496 10495 10495 10495 10495 10496 10498 10498 10497 10497 10496 10495 10494 10494 10494 10494 10494 10493 10491 10490 10490 10491 10491 10491 10492 10492 10492 10491 10491 10490 10488 10487 10486 10486 10486 10486 10485 10483 10482 10480 10479 10477 10476 10475 10473 10471 10469 10467 10465 10463 10460 10457 10454 10451 10448 10445 10441 10438 10434 10431 10428 10424 10418 10412 10408 10406
10452 10455 10457 10460 10462 10465 10467 10470 10472 10475 10477 10479 10481 10483 10484 10486 10486 10486 10487 10487 10487 10487 10487 10487 10488 10489 10489 10490 10489 10488 10487 10487 10488 10487 10486 10486 10485 10484 10483 10483 10484 10484 10483 10483 10483 10482 10481 10480 10479 10478 10477 10477 10477 10477 10476 10474 10473 10471 10470 10469 10467 10466 10465 10464 10462 10460 10457 10455 10452 10449 10446 10443 10440 10437 10433 10429 10426 10423 10420 10417 10414 10409 10404 10399 10396
10443 10445 10447 10449 10451 10454 10456 10459 10461 10464 10466 10468 10470 10472 10474 10476 10477 10477 10477 10477 10478 10478 10478 10478 10479 10479 10480 10481 10481 10480 10479 10479 10479 10479 10478 10477 10477 10476 10476 10476 10475 10475 10475 10474 10473 10472 10471 10470 10469 10469 10469 10468 10467 10466 10465 10464 10463 10461 10460 10459 10458 10457 10456 10455 10453 10450 10448 10445 10442 10439 10435 10432 10428 10425 10421 10418 10415 10412 10409 10406 10402 10398 10394 10389 10384
10432 10434 10436 10438 10440 10442 10445 10448 10451 10453 10455 10458 10459 10461 10462 10464 10466 10467 10468 10468 10468 10468 10468 10468 10469 10470 10471 10471 10471 10471 10471 10470 10469 10469 10469 10469 10469 10468 10468 10467 10466 10466 10465 10464 10464 10463 10462 10461 10461 10460 10460 10459 10458 10456 10455 10454 10453 10451 10450 10449 10448 10448 10446 10444 10442 10440 10437 10434 10431 10427 10424 10420 10416 10413 10410 10407 10403 10400 10397 10394 10390 10387 10382 10376 10371
10423 10423 10424 10427 10429 10432 10435 10438 10441 10442 10444 10446 10448 10450 10451 10452 10454 10455 10456 10457 10458 10458 10459 10459 10459 10460 10461 10461 10461 10461 10461 10460 10460 10460 10460 10460 10460 10460 10459 10457 10457 10457 10456 10456 10455 10454 10454 10453 10452 10451 10450 10449 10448 10447 10446 10444 10443 10441 10440 10439 10438 10436 10434 10432 10429 10427 10424 10422 10419 10415 10412 10409 10405 10402 10399 10395 10392 10388 10384 10381 10377 10373 10368 10362 10356
10413 10413 10414 10417 10419 10422 10425 10428 10430 10431 10432 10434 10436 10438 10439 10440 10442 10443 10444 10446 10447 10448 10449 10449 10450 10450 10451 10451 10451 10451 10451 10451 10451 10450 10450 10450 10451 10450 10449 10448 10448 10448 10448 10447 10446 10446 10444 10444 10443 10442 10440 10439 10438 10437 10436 10434 10433 10431 10430 10428 10427 10424 10422 10420 10417 10415 10412 10409 10407 10404 10401 10398 10395 10392 10388 10384 10380 10376 10372 10368 10363 10359 10353 10347 10342
10402 10403 10405 10407 10409 10412 10414 10417 10418 10419 10421 10422 10424 10426 10428 10429 10430 10431 10433 10434 10436 10437 10438 10439 10440 10440 10441 10441 10441 10441 10441 10441 10441 10441 10441 10441 10441 10440 10439 10439 10439 10439 10438 10438 10437 10436 10435 10434 10433 10431 10430 10429 10428 10427 10425 10423 10422 10421 10419 10418 10415 10413 10410 10408 10406 10403 10400 10398 10395 10392 10389 10386 10383 10380 10376 10372 10368 10364 10360 10356 10350 10345 10340 10334 10329
10390 10392 10394 10396 10398 10400 10403 10405 10407 10408 10409 10411 10413 10415 10417 10418 10419 10420 10422 10423 10425 10426 10427 10428 10430 10431 10431 10431 10431 10431 10431 10431 10431 10432 10432 10432 10432 10431 10430 10430 10429 10429 10428 10428 10427 10426 10425 10424 10422 10420 10419 10418 10417 10416 10414 10412 10411 10409 10407 10405 10403 10401 10398 10396 10394 10391 10389 10386 10383 10380 10377 10374 10371 10367 10363 10359 10355 10351 10347 10343 10338 10333 10328 10322 10317
10379 10381 10382 10384 10386 10388 10391 10394 10396 10397 10399 10400 10402 10404 10405 10406 10408 10409 10411 10412 10413 10415 10416 10418 10420 10421 10422 10421 10421 10421 10421 10421 10421 10421 10421 10422 10422 10421 10421 10421 10420 10419 10419 10418 10417 10416 10415 10413 10411 10409 10408 10408 10406 10404 10403 10401 10399 10397 10395 10393 10391 10389 10386 10384 10382 10380 10377 10375 10372 10369 10366 10362 10359 10355 10351 10347 10343 10339 10334 10330 10325 10320 10315 10309 10304
10367 10369 10371 10372 10373 10376 10379 10382 10384 10387 10388 10389 10391 10392 10393 10395 10397 10398 10400 10401 10402 10404 10406 10409 10410 10410 10411 10411 10411 10411 10412 10412 10411 10410 10410 10410 10411 10411 10410 10410 10410 10409 10408 10407 10407 10406 10405 10402 10400 10399 10398 10397 10395 10393 10392 10390 10388 10386 10384 10382 10380 10378 10375 10373 10371 10369 10366 10363 10360 10357 10354 10350 10346 10342 10338 10335 10331 10327 10323 10318 10314 10309 10303 10297 10291
10354 10357 10359 10361 10361 10363 10366 10369 10372 10374 10376 10377 10379 10380 10382 10383 10385 10388 10390 10391 10392 10393 10397 10399 10399 10399 10399 10399 10400 10401 10401 10402 10401 10401 10400 10400 10400 10400 10399 10399 10399 10398 10396 10396 10396 10396 10394 10392 10390 10389 10387 10385 10384 10382 10380 10379 10377 10375 10373 10371 10369 10367 10365 10363 10360 10358 10355 10352 10348 10345 10341 10338 10333 10329 10325 10321 10318 10314 10310 10306 10302 10296 10290 10284 10278
10341 10344 10347 10349 10350 10351 10353 10356 10359 10362 10364 10366 10367 10369 10371 10372 10374 10376 10379 10381 10381 10383 10386 10388 10388 10387 10387 10387 10388 10390 10391 10391 10391 10391 10390 10390 10389 10389 10389 10389 10388 10386 10385 10385 10385 10385 10383 10381 10380 10378 10376 10375 10373 10371 10370 10368 10366 10365 10363 10361 10359 10356 10354 10351 10349 10346 10343 10340 10336 10333 10329 10325 10321 10317 10312 10308 10304 10300 10297 10293 10288 10282 10276 10270 10264
10327 10329 10333 10336 10338 10339 10341 10343 10345 10348 10351 10353 10355 10358 10360 10361 10362 10364 10367 10369 10370 10372 10374 10376 10376 10375 10375 10375 10377 10379 10380 10381 10381 10380 10379 10379 10379 10378 10378 10378 10377 10375 10375 10374 10374 10373 10372 10371 10369 10367 10366 10364 10362 10360 10359 10357 10356 10354 10352 10350 10348 10345 10343 10340 10337 10335 10331 10328 10324 10321 10318 10313 10309 10304 10300 10296 10292 10288 10284 10280 10275 10268 10262 10256 10250
10313 10315 10318 10322 10324 10326 10328 10329 10331 10333 10336 10339 10343 10345 10347 10349 10350 10352 10354 10357 10358 10360 10362 10364 10365 10364 10363 10363 10365 10367 10369 10370 10369 10368 10368 10368 10367 10367 10367 10366 10365 10364 10364 10363 10362 10362 10361 10359 10358 10356 10354 10353 10351 10349 10348 10346 10344 10342 10341 10339 10337 10334 10331 10329 10326 10323 10320 10317 10313 10310 10306 10302 10297 10293 10288 10284 10281 10277 10273 10267 10261 10255 10249 10243 10237
10298 10301 10304 10307 10310 10312 10313 10315 10317 10319 10322 10325 10329 10332 10335 10336 10338 10340 10342 10344 10345 10346 10348 10350 10352 10352 10351 10351 10352 10355 10356 10357 10357 10357 10357 10356 10356 10355 10355 10355 10354 10353 10353 10352 10351 10350 10349 10347 10346 10344 10342 10341 10339 10338 10336 10334 10332 10331 10329 10327 10325 10323 10320 10318 10315 10312 10309 10306 10302 10298 10295 10290 10286 10282 10277 10273 10270 10266 10261 10255 10248 10243 10237 10230 10225
10284 10287 10290 10294 10296 10298 10299 10301 10303 10305 10308 10310 10314 10318 10321 10324 10326 10327 10329 10331 10332 10332 10333 10335 10338 10339 10340 10340 10341 10342 10343 10344 10344 10344 10345 10345 10344 10344 10343 10343 10343 10342 10341 10340 10339 10338 10336 10335 10333 10332 10330 10329 10327 10326 10324 10323 10321 10319 10317 10315 10313 10311 10308 10306 10303 10301 10298 10295 10291 10287 10283 10279 10275 10270 10266 10262 10258 10253 10248 10242 10236 10231 10225 10219 10215
10271 10274 10278 10281 10282 10283 10284 10286 10288 10290 10293 10295 10298 10301 10306 10310 10312 10314 10315 10316 10317 10318 10320 10322 10323 10325 10326 10328 10329 10329 10329 10330 10331 10331 10332 10332 10332 10332 10331 10331 10330 10330 10329 10328 10327 10326 10324 10323 10321 10320 10318 10317 10315 10314 10312 10311 10310 10308 10306 10304 10301 10298 10296 10293 10291 10288 10285 10282 10279 10275 10271 10268 10263 10258 10254 10249 10245 10240 10235 10230 10225 10220 10214 10209 10205
10259 10263 10266 10268 10267 10268 10270 10272 10274 10276 10278 10280 10282 10286 10289 10294 10298 10300 10301 10302 10302 10304 10306 10309 10310 10311 10311 10313 10315 10315 10316 10317 10318 10318 10319 10319 10319 10319 10319 10319 10318 10317 10316 10315 10314 10313 10312 10310 10309 10307 10306 10305 10303 10302 10300 10299 10298 10296 10294 10292 10290 10287 10284 10282 10279 10276 10273 10270 10267 10263 10259 10255 10250 10245 10241 10237 10233 10228 10223 10219 10214 10209 10204 10200 10196
10248 10251 10254 10254 10254 10254 10255 10257 10260 10263 10265 10266 10268 10271 10274 10278 10282 10286 10288 10288 10289 10290 10292 10295 10297 10298 10298 10299 10300 10301 10302 10303 10304 10305 10306 10306 10306 10306 10306 10306 10305 10304 10304 10303 10302 10300 10299 10298 10296 10295 10294 10292 10291 10289 10288 10287 10285 10284 10282 10280 10278 10275 10273 10270 10267 10264 10261 10258 10254 10250 10246 10241 10237 10232 10228 10225 10221 10216 10212 10208 10204 10199 10195 10191 10188
10237 10239 10241 10242 10241 10241 10241 10243 10246 10249 10252 10254 10255 10257 10259 10262 10266 10270 10273 10275 10276 10276 10278 10280 10282 10284 10285 10286 10287 10287 10289 10290 10291 10292 10292 10293 10293 10293 10293 10292 10292 10291 10291 10290 10289 10288 10287 10285 10283 10282 10281 10280 10279 10277 10276 10275 10273 10271 10270 10268 10266 10263 10261 10258 10255 10252 10249 10246 10242 10238 10233 10228 10224 10220 10216 10213 10209 10205 10201 10198 10194 10190 10187 10183 10180
10225 10227 10229 10230 10230 10229 10229 10230 10233 10236 10239 10241 10242 10243 10245 10247 10250 10254 10257 10260 10261 10262 10264 10265 10267 10269 10271 10273 10273 10274 10276 10277 10278 10278 10279 10279 10279 10279 10279 10279 10278 10278 10277 10277 10276 10275 10274 10273 10271 10269 10268 10267 10266 10265 10264 10263 10261 10259 10258 10256 10254 10252 10249 10246 10243 10240 10237 10233 10229 10225 10221 10216 10212 10208 10205 10202 10198 10194 10191 10188 10185 10181 10178 10175 10172
10214 10215 10217 10219 10219 10218 10217 10217 10220 10223 10226 10228 10229 10230 10231 10234 10236 10239 10242 10244 10246 10248 10250 10251 10252 10254 10256 10259 10260 10262 10263 10264 10265 10265 10265 10265 10265 10265 10265 10265 10265 10265 10264 10264 10263 10262 10261 10260 10258 10256 10255 10254 10253 10252 10251 10250 10249 10247 10245 10243 10241 10239 10236 10233 10230 10227 10224 10221 10217 10213 10209 10204 10200 10197 10194 10191 10188 10184 10182 10179 10176 10173 10170 10167 10164
10203 10204 10206 10208 10209 10208 10206 10205 10207 10210 10213 10215 10216 10217 10218 10221 10223 10225 10227 10229 10231 10233 10236 10238 10239 10240 10242 10245 10247 10248 10249 10250 10251 10251 10250 10251 10251 10251 10252 10252 10252 10251 10251 10251 10250 10249 10248 10247 10245 10244 10243 10242 10241 10240 10239 10237 10236 10234 10232 10230 10228 10226 10223 10220 10217 10214 10211 10208 10204 10201 10197 10193 10190 10187 10184 10181 10178 10175 10173 10170 10168 10164 10162 10159 10157
10193 10194 10195 10197 10198 10198 10196 10194 10195 10198 10201 10203 10203 10204 10206 10208 10210 10212 10214 10216 10217 10219 10221 10224 10225 10226 10228 10230 10232 10234 10235 10236 10237 10236 10236 10237 10237 10238 10238 10238 10238 10238 10237 10237 10236 10235 10234 10233 10232 10231 10230 10229 10228 10227 10226 10224 10223 10221 10219 10217 10215 10213 10210 10207 10205 10202 10198 10195 10192 10189 10186 10183 10180 10177 10174 10172 10169 10167 10164 10162 10159 10156 10154 10152 10150
10184 10184 10185 10187 10188 10188 10187 10185 10185 10187 10189 10191 10192 10192 10194 10195 10197 10199 10200 10202 10204 10205 10207 10210 10211 10213 10214 10216 10218 10219 10220 10222 10222 10223 10223 10224 10224 10224 10224 10224 10224 10224 10224 10223 10223 10222 10221 10220 10219 10218 10217 10216 10215 10214 10213 10211 10210 10208 10207 10205 10202 10200 10198 10195 10192 10189 10187 10184 10181 10178 10176 10173 10171 10168 10166 10163 10161 10159 10156 10154 10152 10149 10147 10145 10143